sat.trackr.live / text

‹ back to catalog

MR-1

NORAD 67557 · 2026-015B

PAYLOAD ACTIVE UNKNOWN

§ Identity

Operator
Country
SPN
Launch date
2026-01-22
Launch site
RLLB
Launch vehicle
Mass (kg)
RCS (m²)

External: N2YO · Heavens-Above · Gunter

§ Orbital elements

Epoch: 2026-05-25T01:15:59.353920Z

Period
106.46 min
Inclination
88.9986°
Eccentricity
0.0004855
Mean motion
13.52666578 rev/d
Perigee alt
1,058.9 km
Apogee alt
1,066.1 km
Semi-major
7,440.6 km
B*
6.0257e-5
RAAN
270.8816°
Arg perigee
127.1535°
Mean anomaly
233.0061°
Rev number
1,658

§ Raw data

MR-11 67557U 26015B   26145.05277030  .00000052  00000+0  60257-4 0  99962 67557  88.9986 270.8816 0004855 127.1535 233.0061 13.52666578 16582

JSON: /api/v1/satellites/67557 · /tle

For live sub-satellite position, see the globe view (requires WebGL).

§ Visibility from observer

Set your observer location to see the next 7 days of passes ≥ 10°. The values pass through the URL so the page stays shareable.

No JS? Fill the form by hand. The geolocation button needs JavaScript.

§ Radio — SatNOGS DB

ModeDescriptionDownlinkUplink
FM S-band telemetry 2.245 GHz

1 transmitter · refreshed weekly from db.satnogs.org